Temperature
31 32 32 32 32 32 32 31 31 31 31 31 30 30 29 28 27 26 25 25 24 23 22 22 21 21 20 20 19 19 18 18 18 18 17 17 17 17 17 17 17 17 16 16
29 31 32 32 32 32 32 32 32 31 31 30 30 29 28 28 27 26 25 24 23 23 22 21 21 20 20 19 19 18 18 18 17 17 17 17 17 17 17 17 16 16 16 16
28 30 30 30 31 31 31 31 31 30 30 30 29 28 27 27 26 25 24 24 23 22 21 21 20 20 19 19 18 18 18 17 17 17 17 17 16 16 16 16 16 16 16 16
28 28 27 30 31 31 31 31 31 30 29 29 28 27 27 26 25 25 24 23 22 22 21 21 20 20 19 18 18 18 17 17 17 16 16 16 16 16 16 16 16 15 15 15
27 27 28 29 30 30 30 29 30 29 29 28 27 27 26 25 24 24 23 22 22 22 21 20 20 19 19 18 18 17 17 17 17 16 16 16 16 16 16 15 15 15 15 15
27 26 26 27 29 29 29 27 28 28 28 27 27 26 25 24 23 23 22 21 21 21 21 20 19 19 18 18 18 17 17 16 16 16 16 16 15 15 15 15 15 15 15 15
26 26 26 27 28 28 26 25 27 27 26 26 25 24 23 22 22 21 21 21 20 20 20 19 19 18 18 17 17 17 16 16 16 16 15 15 15 15 15 15 15 14 14 14
26 25 24 26 27 25 24 25 25 25 25 24 23 22 22 21 21 21 20 20 19 19 18 18 18 17 17 17 16 16 16 16 16 15 15 15 15 15 15 15 14 14 14 14
25 24 24 24 24 24 24 24 24 23 23 22 22 22 21 20 20 20 19 19 19 18 18 17 17 17 16 16 16 16 16 15 15 15 15 15 15 15 15 14 14 14 14 14
24 24 24 24 24 23 23 23 23 22 22 22 21 21 20 20 19 19 18 18 18 17 17 16 16 16 16 16 15 15 15 15 15 15 15 15 14 14 14 14 14 14 14 13
23 23 23 23 23 22 22 22 22 21 21 21 21 20 20 19 19 18 18 17 17 17 16 16 16 16 15 15 15 15 15 15 14 14 14 14 14 14 14 14 14 14 13 13
22 22 22 22 22 22 21 21 21 21 20 20 20 19 19 18 18 17 17 17 16 16 16 15 15 15 15 15 15 14 14 14 14 14 14 14 14 14 14 14 13 13 13 13
21 21 21 21 21 21 20 20 20 20 19 19 19 18 18 17 17 17 16 16 16 15 15 15 15 15 14 14 14 14 14 14 14 14 14 14 13 13 13 13 13 13 13 13
20 20 20 20 20 20 20 19 19 19 18 18 18 17 17 16 16 16 16 15 15 15 15 15 14 14 14 14 14 13 13 13 13 13 13 13 13 13 13 13 13 13 13 13
20 20 19 19 19 19 19 19 18 18 18 17 17 17 16 16 15 15 15 15 15 14 14 14 14 13 13 13 13 13 13 13 13 13 13 13 13 13 13 13 13 13 13 12
19 19 19 19 18 18 18 18 18 17 17 17 16 16 16 15 15 15 14 14 14 14 14 13 13 13 13 13 13 13 13 13 13 13 13 13 13 13 13 13 13 13 12 12
18 18 18 18 18 18 18 18 17 17 17 16 16 16 15 15 14 14 14 14 14 13 13 13 13 13 13 13 13 12 13 13 13 13 13 13 13 13 12 12 12 12 12 12
18 18 17 17 17 17 17 17 16 16 16 16 15 15 15 14 14 14 14 13 13 13 13 13 13 12 12 12 12 12 13 13 13 13 13 12 12 12 12 12 12 12 12 12
17 17 17 16 16 16 16 16 16 15 15 15 15 14 14 14 14 13 13 13 13 13 12 12 12 12 12 12 12 12 12 12 12 12 12 12 12 12 12 12 12 11 11 11
16 16 16 16 16 16 16 15 15 15 14 14 14 14 14 14 13 13 13 13 13 12 12 12 12 12 12 12 12 12 12 12 12 12 12 12 12 11 11 11 11 11 11 11
16 15 15 15 15 15 15 15 14 14 14 14 14 14 13 13 13 13 13 12 12 12 12 12 12 12 12 12 12 12 12 12 12 12 12 11 11 11 11 11 11 11 10 10
15 15 15 14 14 14 14 14 14 14 14 13 13 13 13 13 13 13 12 12 12 12 12 12 12 12 12 12 11 11 12 12 11 11 11 11 11 11 11 10 10 10 10 10
14 14 14 14 13 13 13 13 13 13 13 13 13 13 13 13 13 12 12 12 12 12 12 11 11 11 11 11 11 11 11 11 11 11 11 11 10 10 10 10 10 10 9 9
13 13 13 13 13 13 13 13 13 13 13 12 12 12 12 12 12 12 12 12 12 11 11 11 11 11 11 11 11 11 11 11 11 11 10 10 10 10 10 10 9 9 9 9
12 12 12 12 12 13 12 13 13 13 13 13 12 12 12 12 12 12 11 11 11 11 11 11 11 11 11 11 11 11 11 10 10 10 10 10 10 10 10 9 9 9 9 9
12 12 12 12 12 12 12 12 12 12 12 12 12 12 12 12 12 11 11 11 11 11 11 11 11 11 11 11 11 10 10 10 10 10 10 10 9 9 9 9 9 9 9 8
12 12 12 12 12 12 12 12 12 12 12 12 12 11 11 11 11 11 11 11 11 11 11 10 10 10 10 10 10 10 10 10 10 10 9 9 9 9 8 8 8 8 8 8
Wind_Speed
15 16 16 14 13 13 14 14 13 10 6 2 2 3 4 5 6 7 6 5 5 5 5 5 5 4 3 3 4 4 4 4 3 3 2 2 2 2 2 3 3 2 3 4
15 17 18 17 14 13 13 13 12 10 4 2 4 4 4 4 4 5 5 5 5 4 4 4 4 3 3 3 3 4 4 3 3 2 2 1 2 2 2 2 3 2 3 3
14 15 16 17 14 12 10 8 9 7 2 2 4 3 3 3 3 4 4 4 3 3 3 2 3 4 3 3 3 4 4 3 3 2 2 2 3 2 2 2 2 3 3 3
13 14 17 11 8 8 7 6 3 2 2 3 3 3 4 4 4 3 2 2 3 2 1 1 2 4 3 3 3 3 3 3 3 2 2 2 2 2 2 2 3 3 3 3
11 13 14 9 7 7 7 5 4 2 1 1 3 3 4 5 4 4 2 3 2 1 2 2 2 3 3 3 3 3 2 2 1 2 2 2 3 3 3 3 3 4 3 3
11 13 13 7 7 9 7 5 3 3 1 1 1 1 2 5 5 4 4 5 4 2 2 3 3 2 3 3 2 2 1 1 1 2 2 3 3 3 3 3 4 4 4 3
13 13 8 6 8 8 6 3 5 3 2 2 3 4 5 6 5 5 4 4 4 4 3 4 3 2 1 1 1 1 1 2 2 2 3 3 2 2 3 3 4 4 4 4
9 11 6 8 6 4 3 5 6 6 5 6 6 7 6 5 4 4 3 4 4 4 3 3 2 2 1 1 1 1 1 1 2 2 3 2 2 2 3 3 4 4 4 4
5 3 2 5 5 5 5 5 5 5 4 4 4 4 4 3 3 3 3 3 3 3 3 3 2 2 1 2 1 1 1 2 2 2 2 2 3 3 3 3 4 3 3 3
4 1 2 3 4 5 5 4 4 4 3 2 1 2 2 2 2 2 2 2 2 2 2 2 2 2 2 2 1 1 2 2 2 2 3 3 3 2 2 2 3 3 4 4
4 2 3 3 3 4 4 4 4 3 2 2 1 1 1 1 1 1 1 2 2 1 1 1 1 2 1 2 1 2 2 2 3 3 3 2 2 2 2 2 2 3 4 4
3 2 3 3 2 3 2 2 3 2 3 3 2 1 0 0 1 1 1 2 2 2 2 2 2 1 2 2 2 2 2 3 3 3 2 1 1 2 3 2 2 2 2 3
3 4 5 6 4 3 2 1 1 2 2 3 3 2 1 1 1 1 1 2 2 2 2 2 2 2 3 3 2 2 3 3 3 3 2 2 2 2 2 2 2 2 2 3
3 3 5 5 5 4 3 2 1 2 2 2 2 1 2 1 1 1 1 2 2 2 2 2 2 2 3 3 3 3 4 3 3 3 3 3 3 3 3 2 1 2 2 4
4 4 4 4 4 3 3 2 1 1 2 2 1 1 1 1 1 1 2 2 2 3 3 2 3 3 3 3 3 4 5 4 3 3 3 3 3 3 3 3 2 1 1 1
5 4 3 4 3 3 3 3 2 1 2 2 1 0 1 0 0 1 2 2 2 3 3 3 3 4 4 4 4 4 5 4 3 3 4 3 3 3 3 3 2 2 1 0
4 4 4 4 3 3 3 3 3 3 2 2 1 1 0 1 1 1 2 2 2 2 2 3 4 4 4 4 4 5 4 3 4 4 4 3 3 2 2 2 3 2 1 1
4 3 3 3 3 2 3 3 3 2 1 1 2 1 1 1 2 2 3 3 3 3 3 3 3 3 4 4 4 5 5 4 3 3 3 2 2 3 3 3 3 3 2 0
3 2 2 2 2 3 2 2 2 3 3 2 2 2 2 2 2 2 2 3 3 3 3 3 4 5 4 3 4 4 5 5 3 2 2 2 2 3 3 3 3 3 2 1
2 1 1 2 3 3 3 3 3 2 4 3 3 3 3 3 2 3 3 3 3 3 3 3 3 4 4 4 4 5 5 4 4 2 2 2 3 3 3 3 3 3 3 2
2 2 2 2 2 3 3 3 3 3 4 4 3 4 4 3 3 3 3 3 1 1 2 4 3 3 3 4 5 5 4 4 3 2 2 3 3 3 3 3 3 3 3 2
2 2 2 3 3 3 4 4 4 4 5 4 4 4 5 4 4 3 3 2 2 1 3 3 2 2 3 4 5 5 4 3 3 2 2 2 3 3 2 3 3 3 3 2
2 2 3 3 3 4 4 4 4 4 4 5 5 5 5 5 4 3 2 1 2 2 3 2 1 1 3 4 5 4 3 4 3 3 2 2 3 3 3 3 3 3 3 2
2 2 3 3 4 4 4 5 4 3 4 5 5 4 4 4 2 2 1 1 1 1 2 1 2 4 5 4 4 3 3 2 3 3 3 3 2 2 2 3 3 3 3 4
2 2 2 3 4 4 4 5 4 4 5 4 3 3 3 2 2 2 2 0 1 1 2 2 5 6 5 4 4 4 3 2 3 3 3 3 2 3 2 2 3 3 3 2
2 2 2 3 3 3 4 4 4 4 3 4 4 3 3 2 2 2 2 2 2 2 3 3 2 3 4 4 4 3 2 2 2 2 2 2 2 3 4 4 4 3 2 3
2 1 1 2 2 3 3 3 3 3 3 3 4 4 3 3 2 2 2 2 2 3 3 3 2 2 3 4 3 2 2 2 2 2 2 2 2 2 3 3 3 2 2 2
Wind_Direction
269 275 272 266 260 253 252 260 267 276 270 278 109 103 99 102 111 113 107 101 96 92 98 114 115 123 130 145 152 162 168 179 186 192 191 208 225 243 246 251 248 252 273 282
269 269 272 272 266 260 260 266 270 274 273 60 82 81 88 98 100 114 114 106 99 98 99 118 128 136 145 160 157 156 162 165 159 172 185 202 232 240 250 260 276 268 269 277
271 274 276 267 269 272 270 268 273 271 273 92 96 93 115 122 111 86 92 92 98 107 105 110 140 146 162 165 158 162 163 163 160 180 198 225 249 235 252 266 278 275 273 276
264 269 263 271 295 290 289 292 305 358 58 65 69 93 95 84 78 74 66 93 99 111 103 131 144 148 159 166 164 169 172 183 180 197 212 232 255 251 253 262 262 261 262 266
262 261 261 264 295 298 289 289 322 323 63 90 105 101 85 66 73 69 57 77 95 134 137 114 120 130 145 162 165 181 191 194 195 218 231 243 255 262 264 261 262 264 258 253
254 261 265 285 306 305 288 260 353 357 20 14 84 204 107 77 68 60 56 57 53 49 67 89 84 108 156 163 160 180 216 246 238 238 246 254 260 258 264 267 263 265 266 258
252 259 262 303 314 307 273 319 352 1 53 65 62 58 83 76 64 56 57 64 55 50 58 65 65 84 115 141 181 196 220 238 247 253 253 247 255 255 255 262 268 267 268 259
255 261 263 343 331 344 4 8 6 14 38 65 77 85 86 75 58 51 49 57 58 56 54 50 48 47 27 19 352 350 301 280 281 282 282 275 258 256 249 249 259 262 262 262
260 266 26 12 14 26 27 23 19 29 35 56 70 80 86 82 65 47 37 43 55 64 54 36 22 30 7 13 19 358 298 287 288 280 273 274 258 257 259 248 261 271 270 268
293 301 357 351 12 20 19 19 27 44 26 20 71 84 83 87 77 38 15 39 48 52 47 22 358 4 24 6 355 306 279 273 265 259 260 256 262 269 274 278 283 294 297 288
263 301 350 9 358 355 356 11 32 33 15 12 19 62 66 76 82 48 17 29 25 34 19 343 2 12 8 354 328 291 282 274 268 267 268 257 278 301 283 289 268 267 287 296
278 332 312 300 329 329 340 358 358 6 19 22 24 25 26 3 51 22 12 6 357 12 360 338 332 342 339 329 313 284 277 283 284 277 276 269 261 325 341 266 227 222 251 287
338 333 324 320 324 333 332 321 31 27 25 24 19 8 17 31 52 46 18 355 332 330 334 324 317 316 321 328 321 285 279 282 281 282 277 271 270 270 287 298 277 277 262 258
7 340 307 305 317 332 337 339 24 34 12 14 6 16 31 11 10 7 325 299 293 299 303 306 315 313 317 315 303 283 272 266 272 276 277 275 273 271 265 268 278 289 269 251
303 287 279 291 306 311 311 295 316 358 343 343 352 20 21 10 7 345 328 320 318 309 312 317 321 317 307 294 290 281 268 262 261 272 271 271 265 268 275 283 291 286 239 259
287 288 289 292 294 294 287 284 292 300 294 297 305 356 14 342 333 316 310 305 294 298 316 317 303 299 300 293 291 277 263 250 258 274 274 273 275 286 300 306 307 306 307 8
272 276 278 288 280 271 287 302 302 286 280 274 287 291 290 305 302 302 299 292 294 295 295 295 295 300 298 294 291 286 285 261 225 256 272 277 282 293 306 313 312 308 311 84
261 269 285 283 291 312 319 326 312 286 273 286 312 309 289 281 284 292 299 302 302 305 312 312 315 305 291 293 293 290 288 282 259 255 262 265 277 284 290 291 291 300 317 223
251 263 283 303 323 314 302 313 331 336 321 326 320 292 274 274 273 272 285 293 294 293 307 326 315 295 290 293 297 278 283 289 290 289 272 272 271 270 275 283 291 302 311 307
282 295 331 345 325 321 330 340 342 332 320 315 310 301 289 272 266 267 272 283 293 308 329 334 310 304 304 309 294 280 282 286 289 300 301 301 296 297 298 301 310 321 319 321
279 291 295 294 310 328 331 331 327 314 305 294 283 280 279 273 262 258 261 263 246 289 292 276 276 291 302 313 282 279 282 284 287 297 305 303 302 303 316 328 325 319 318 327
312 310 319 320 325 327 331 327 320 315 316 312 300 287 286 283 271 263 255 269 255 290 284 284 309 334 319 304 287 286 292 298 300 304 305 316 313 313 327 320 309 317 320 324
321 324 323 322 322 318 318 314 311 318 314 310 300 289 280 278 275 274 283 283 275 278 283 307 349 319 295 284 287 291 299 300 298 301 302 303 306 310 311 305 306 314 312 308
307 306 311 309 306 302 300 297 296 295 287 285 286 293 287 275 275 265 245 198 192 263 288 316 238 267 263 265 275 282 283 290 296 298 289 290 293 293 296 306 307 304 303 304
278 272 282 285 282 285 286 284 284 287 288 297 308 306 298 311 307 310 310 304 165 236 288 250 238 254 258 272 278 278 281 284 283 282 279 292 303 301 297 293 288 284 287 291
280 276 286 291 304 299 301 308 310 316 320 318 320 315 309 312 309 283 278 277 285 263 268 277 268 249 266 276 283 289 298 303 291 292 311 319 325 324 321 314 313 318 329 330
282 277 263 284 293 311 313 313 317 321 326 329 322 321 320 321 325 314 300 293 289 279 272 275 284 285 286 291 296 302 300 300 302 312 320 333 339 324 317 321 332 338 346 358
Height
1459 1454 1452 1453 1452 1451 1456 1458 1463 1460 1459 1459 1458 1463 1466 1471 1475 1478 1481 1483 1485 1487 1489 1491 1493 1494 1496 1497 1498 1499 1499 1500 1500 1501 1501 1501 1501 1502 1502 1502 1502 1502 1503 1503
1465 1456 1452 1452 1449 1449 1451 1451 1453 1456 1460 1457 1461 1465 1469 1473 1476 1479 1481 1484 1486 1488 1489 1490 1492 1493 1494 1495 1496 1496 1497 1497 1498 1499 1499 1499 1499 1499 1499 1499 1499 1499 1500 1499
1471 1459 1457 1461 1450 1448 1449 1448 1453 1460 1460 1459 1463 1467 1471 1474 1477 1479 1482 1484 1486 1487 1488 1489 1491 1491 1492 1493 1494 1494 1495 1495 1496 1496 1496 1497 1497 1497 1496 1496 1496 1497 1497 1497
1471 1471 1483 1459 1444 1445 1449 1449 1450 1454 1457 1461 1466 1469 1472 1475 1477 1480 1482 1484 1486 1487 1488 1489 1490 1490 1491 1491 1492 1493 1493 1494 1494 1494 1494 1495 1495 1494 1494 1494 1494 1494 1494 1493
1472 1474 1469 1455 1450 1449 1453 1456 1453 1455 1459 1463 1466 1470 1474 1477 1479 1482 1483 1484 1486 1487 1487 1488 1489 1489 1490 1490 1491 1492 1492 1492 1492 1492 1492 1492 1492 1491 1491 1491 1491 1491 1491 1490
1470 1478 1479 1465 1453 1451 1454 1462 1458 1459 1461 1464 1466 1471 1476 1479 1481 1483 1484 1485 1485 1486 1487 1487 1488 1488 1489 1489 1489 1490 1490 1490 1490 1490 1489 1489 1489 1489 1489 1488 1488 1488 1488 1487
1469 1473 1468 1461 1456 1454 1468 1472 1463 1463 1464 1467 1469 1474 1478 1480 1482 1483 1484 1485 1485 1486 1486 1487 1487 1487 1488 1488 1488 1488 1488 1488 1488 1488 1487 1487 1487 1486 1486 1486 1486 1485 1485 1484
1468 1475 1477 1463 1460 1464 1469 1467 1467 1467 1468 1469 1472 1475 1478 1481 1482 1484 1484 1485 1485 1486 1486 1486 1486 1486 1486 1486 1486 1486 1486 1486 1486 1485 1485 1485 1484 1484 1483 1483 1483 1482 1482 1482
1465 1471 1468 1467 1467 1468 1468 1468 1469 1470 1472 1473 1474 1477 1479 1481 1483 1484 1485 1485 1485 1485 1485 1485 1485 1485 1485 1485 1485 1484 1484 1484 1483 1483 1483 1482 1482 1481 1481 1481 1481 1480 1480 1479
1464 1464 1466 1468 1469 1470 1471 1471 1471 1472 1474 1475 1476 1478 1479 1481 1482 1484 1484 1484 1484 1484 1484 1484 1484 1484 1484 1483 1483 1483 1482 1481 1481 1480 1480 1480 1479 1479 1479 1478 1478 1478 1477 1476
1465 1466 1468 1469 1471 1472 1472 1472 1473 1474 1475 1475 1476 1478 1479 1480 1481 1482 1483 1483 1483 1483 1483 1483 1483 1482 1482 1481 1481 1480 1479 1479 1479 1478 1478 1477 1477 1476 1476 1475 1475 1475 1474 1473
1467 1469 1470 1471 1472 1473 1473 1473 1474 1475 1475 1475 1476 1477 1479 1479 1480 1481 1481 1482 1482 1481 1481 1481 1481 1480 1479 1479 1478 1478 1477 1477 1476 1476 1475 1475 1474 1473 1473 1473 1472 1472 1471 1471
1469 1470 1471 1471 1471 1472 1473 1473 1474 1474 1474 1475 1476 1477 1477 1478 1479 1479 1479 1480 1480 1480 1480 1479 1479 1478 1477 1476 1476 1475 1475 1474 1474 1473 1473 1472 1471 1471 1470 1470 1469 1469 1468 1468
1469 1471 1471 1472 1472 1472 1472 1472 1473 1474 1474 1475 1476 1476 1477 1477 1477 1477 1477 1478 1478 1478 1477 1477 1476 1476 1475 1474 1473 1473 1472 1472 1471 1471 1470 1470 1469 1469 1468 1467 1466 1465 1465 1464
1470 1471 1471 1471 1471 1471 1472 1472 1472 1473 1474 1475 1475 1475 1475 1475 1475 1476 1476 1476 1476 1475 1475 1475 1474 1473 1472 1471 1470 1470 1469 1469 1469 1468 1468 1467 1467 1467 1466 1465 1464 1463 1462 1461
1470 1470 1470 1470 1470 1471 1471 1471 1471 1472 1473 1473 1473 1474 1474 1474 1474 1474 1474 1474 1474 1473 1473 1472 1471 1470 1470 1469 1468 1467 1466 1466 1466 1466 1465 1465 1464 1464 1463 1463 1462 1461 1460 1459
1469 1469 1469 1469 1470 1470 1470 1470 1470 1471 1471 1472 1472 1472 1472 1473 1473 1473 1472 1472 1471 1471 1470 1469 1468 1467 1467 1466 1465 1465 1464 1464 1464 1463 1463 1463 1462 1462 1461 1461 1460 1459 1458 1457
1468 1468 1469 1469 1469 1468 1469 1469 1469 1469 1469 1470 1470 1470 1470 1471 1471 1470 1470 1470 1469 1468 1468 1467 1466 1465 1464 1464 1463 1462 1462 1462 1461 1461 1460 1460 1460 1459 1459 1458 1458 1457 1456 1455
1466 1467 1468 1468 1468 1468 1468 1468 1468 1468 1469 1468 1468 1469 1468 1469 1468 1468 1468 1467 1467 1466 1465 1464 1463 1462 1462 1461 1460 1460 1460 1460 1459 1459 1458 1458 1458 1457 1457 1456 1455 1455 1454 1453
1465 1466 1466 1466 1467 1467 1467 1467 1467 1468 1467 1467 1467 1466 1466 1466 1466 1465 1465 1465 1464 1463 1463 1462 1461 1460 1459 1459 1458 1458 1458 1457 1457 1456 1456 1456 1455 1455 1454 1454 1453 1453 1452 1451
1464 1465 1465 1466 1466 1466 1466 1466 1466 1465 1466 1466 1465 1465 1464 1463 1463 1462 1462 1462 1461 1461 1460 1459 1458 1457 1457 1456 1456 1456 1456 1455 1455 1454 1453 1453 1453 1452 1452 1452 1451 1450 1449 1448
1463 1464 1464 1464 1464 1464 1465 1464 1464 1464 1463 1463 1462 1462 1462 1461 1460 1460 1459 1459 1458 1458 1457 1457 1456 1455 1454 1454 1454 1454 1454 1453 1453 1452 1451 1451 1451 1450 1450 1450 1449 1448 1447 1445
1462 1462 1462 1462 1463 1463 1462 1462 1462 1461 1461 1460 1460 1459 1459 1458 1457 1457 1456 1456 1456 1455 1455 1454 1454 1453 1452 1452 1451 1451 1451 1451 1451 1450 1450 1449 1449 1448 1448 1447 1446 1445 1444 1443
1460 1460 1460 1461 1460 1460 1460 1460 1459 1459 1458 1457 1457 1456 1456 1455 1455 1454 1454 1453 1453 1452 1452 1452 1451 1450 1450 1449 1449 1449 1449 1449 1449 1448 1447 1447 1446 1445 1445 1444 1444 1443 1442 1441
1458 1458 1458 1458 1458 1458 1458 1458 1457 1457 1456 1455 1454 1454 1453 1453 1453 1452 1452 1451 1451 1450 1450 1449 1448 1448 1447 1447 1447 1447 1447 1446 1446 1445 1445 1444 1444 1443 1442 1441 1440 1440 1439 1438
1456 1456 1456 1456 1456 1456 1456 1456 1455 1454 1454 1453 1452 1452 1451 1451 1450 1450 1450 1449 1448 1448 1447 1447 1446 1445 1445 1445 1445 1444 1444 1444 1443 1443 1442 1442 1441 1440 1440 1439 1438 1437 1436 1435
1454 1454 1454 1454 1454 1454 1454 1454 1453 1453 1452 1452 1451 1451 1450 1449 1448 1448 1447 1447 1446 1446 1445 1445 1444 1444 1443 1443 1442 1442 1441 1441 1441 1440 1440 1439 1438 1438 1437 1436 1435 1434 1433 1432